This demonstration page uses our WeatherBlox Daily Observations layout. Learn more.

41.86663, -103.66717

Hourly Observations for August 2, 2020

Temp ( °F °C ) Dew Point ( °F °C ) Humidity (%) Winds ( mph kmh ) Pressure ( in mb ) Visibility ( mi km ) Precip ( " mm )
12:53 am 00:53 Mostly Clear 64 17.8 57 13.9 78 78 E 8 13 30.09 1019 10 16.0934 0 0
1:53 am 01:53 Partly Cloudy 63 17.2 57 13.9 81 81 E 9 15 30.08 1019 10 16.0934 0 0
2:53 am 02:53 Mostly Cloudy 63 17.2 57 13.9 81 81 E 12 19 30.08 1019 10 16.0934 0 0
3:53 am 03:53 Mostly Clear 62 16.7 57 13.9 84 84 E 10 17 30.09 1019 10 16.0934 0 0
4:53 am 04:53 Clear 60 15.6 56 13.3 86 86 E 8 13 30.09 1019 10 16.0934 0 0
5:53 am 05:53 Sunny 59 15 55 12.8 87 87 E 8 13 30.1 1019 10 16.0934 0 0
6:53 am 06:53 Sunny 60 15.6 55 12.8 84 84 ESE 8 13 30.11 1020 10 16.0934 0 0
7:53 am 07:53 Mostly Sunny 62 16.7 55 12.8 78 78 ESE 13 20 30.13 1020 10 16.0934 0 0
8:53 am 08:53 Cloudy 65 18.3 55 12.8 70 70 SE 10 17 30.15 1021 10 16.0934 0 0
9:09 am 09:09 Cloudy 66 19 55 13 68 68 SE 9 15 30.08 1019 10 16.0934 0 0
9:53 am 09:53 Cloudy 69 20.6 54 12.2 59 59 SE 12 19 30.15 1021 10 16.0934 0 0
10:53 am 10:53 Cloudy 70 21.1 55 12.8 59 59 SSE 9 15 30.15 1021 10 16.0934 0 0
11:51 am 11:51 Cloudy 75 24 55 13 50 50 S 12 19 30 1016 10 16.0934 0 0
11:53 am 11:53 Cloudy 75 23.9 55 12.8 50 50 SSE 12 19 30.12 1020 10 16.0934 0 0
12:53 pm 12:53 Mostly Sunny 78 25.6 56 13.3 47 47 SE 13 20 30.1 1019 10 16.0934 0 0
1:53 pm 13:53 Mostly Sunny 80 26.7 56 13.3 44 44 SE 12 19 30.07 1018 10 16.0934 0 0
2:53 pm 14:53 Sunny 82 27.8 56 13.3 41 41 VRB 7 11 30.05 1018 10 16.0934 0 0
3:53 pm 15:53 Sunny 84 28.9 56 13.3 38 38 ESE 15 24 30.03 1017 10 16.0934 0 0
4:53 pm 16:53 Sunny 83 28.3 56 13.3 40 40 E 16 26 30.01 1016 10 16.0934 0 0
5:53 pm 17:53 Sunny 82 27.8 56 13.3 41 41 E 15 24 30.01 1016 10 16.0934 0 0
6:53 pm 18:53 Sunny 79 26.1 56 13.3 45 45 ESE 15 24 30.02 1017 10 16.0934 0 0
7:53 pm 19:53 Sunny 74 23.3 55 12.8 52 52 ESE 13 20 30.03 1017 10 16.0934 0 0
8:53 pm 20:53 Clear 70 21.1 56 13.3 61 61 ESE 10 17 30.04 1017 10 16.0934 0 0
9:53 pm 21:53 Clear 66 18.9 56 13.3 70 70 E 9 15 30.06 1018 10 16.0934 0 0
10:53 pm 22:53 Clear 64 17.8 56 13.3 75 75 ESE 8 13 30.07 1018 10 16.0934 0 0
11:53 pm 23:53 Clear 63 17.2 56 13.3 78 78 ESE 9 15 30.07 1018 10 16.0934 0 0

Powered by AerisWeather